Time,TemperatureF,DewpointF,PressureIn,WindDirection,WindDirectionDegrees,WindSpeedMPH,WindSpeedGustMPH,Humidity,HourlyPrecipIn,Conditions,Clouds,dailyrainin,SoftwareType,DateUTC
2013-07-31 00:03:00,62.7,-99.9,-100.00,North,-999,0.0,0.0,-999,0.00,,,-99.99,WeatherLink 5.4,2013-07-31 04:03:00,
2013-07-31 00:33:00,61.0,-99.9,-100.00,North,-999,0.0,0.0,-999,0.00,,,-99.99,WeatherLink 5.4,2013-07-31 04:33:00,
2013-07-31 01:03:00,61.0,-99.9,-100.00,North,-999,0.0,0.0,-999,0.00,,,-99.99,WeatherLink 5.4,2013-07-31 05:03:00,
2013-07-31 01:33:00,60.8,-99.9,-100.00,North,-999,0.0,0.0,-999,0.00,,,-99.99,WeatherLink 5.4,2013-07-31 05:33:00,
2013-07-31 02:03:00,60.7,-99.9,-100.00,North,-999,0.0,0.0,-999,0.00,,,-99.99,WeatherLink 5.4,2013-07-31 06:03:00,
2013-07-31 02:33:00,60.8,-99.9,-100.00,North,-999,0.0,0.0,-999,0.00,,,-99.99,WeatherLink 5.4,2013-07-31 06:33:00,
2013-07-31 03:03:00,60.4,-99.9,-100.00,North,-999,0.0,0.0,-999,0.00,,,-99.99,WeatherLink 5.4,2013-07-31 07:03:00,
2013-07-31 03:33:00,60.5,-99.9,-100.00,North,-999,0.0,0.0,-999,0.00,,,-99.99,WeatherLink 5.4,2013-07-31 07:33:00,
2013-07-31 04:03:00,60.3,-99.9,-100.00,North,-999,0.0,0.0,-999,0.00,,,-99.99,WeatherLink 5.4,2013-07-31 08:03:00,
2013-07-31 04:33:00,59.9,-99.9,-100.00,North,-999,0.0,0.0,-999,0.00,,,-99.99,WeatherLink 5.4,2013-07-31 08:33:00,
2013-07-31 05:03:00,59.5,-99.9,-100.00,North,-999,0.0,0.0,-999,0.00,,,-99.99,WeatherLink 5.4,2013-07-31 09:03:00,
2013-07-31 05:33:00,59.3,-99.9,-100.00,North,-999,0.0,0.0,-999,0.00,,,-99.99,WeatherLink 5.4,2013-07-31 09:33:00,
2013-07-31 06:03:00,59.8,-99.9,-100.00,North,-999,0.0,0.0,-999,0.00,,,-99.99,WeatherLink 5.4,2013-07-31 10:03:00,
2013-07-31 06:33:00,60.5,-99.9,-100.00,North,-999,0.0,0.0,-999,0.00,,,-99.99,WeatherLink 5.4,2013-07-31 10:33:00,
2013-07-31 07:03:00,60.7,-99.9,-100.00,North,-999,0.0,0.0,-999,0.00,,,-99.99,WeatherLink 5.4,2013-07-31 11:03:00,
2013-07-31 07:33:00,60.7,-99.9,-100.00,North,-999,0.0,0.0,-999,0.00,,,-99.99,WeatherLink 5.4,2013-07-31 11:33:00,
2013-07-31 08:03:00,62.2,-99.9,-100.00,North,-999,0.0,2.0,-999,0.00,,,-99.99,WeatherLink 5.4,2013-07-31 12:03:00,
2013-07-31 08:33:00,64.8,-99.9,-100.00,NNW,337,0.0,2.0,-999,0.00,,,-99.99,WeatherLink 5.4,2013-07-31 12:33:00,
2013-07-31 09:03:00,64.6,-99.9,-100.00,NNW,337,0.0,4.0,-999,0.00,,,-99.99,WeatherLink 5.4,2013-07-31 13:03:00,
2013-07-31 09:33:00,65.1,-99.9,-100.00,NNW,337,0.0,3.0,-999,0.00,,,-99.99,WeatherLink 5.4,2013-07-31 13:33:00,
2013-07-31 10:03:00,67.6,-99.9,-100.00,SW,225,0.0,5.0,-999,0.00,,,-99.99,WeatherLink 5.4,2013-07-31 14:03:00,
2013-07-31 10:33:00,69.9,-99.9,-100.00,SW,225,1.0,8.0,-999,0.00,,,-99.99,WeatherLink 5.4,2013-07-31 14:33:00,
2013-07-31 11:03:00,71.2,-99.9,-100.00,SW,225,2.0,8.0,-999,0.00,,,-99.99,WeatherLink 5.4,2013-07-31 15:03:00,
2013-07-31 11:33:00,72.1,-99.9,-100.00,WSW,247,1.0,7.0,-999,0.00,,,-99.99,WeatherLink 5.4,2013-07-31 15:33:00,
2013-07-31 12:03:00,72.5,-99.9,-100.00,SW,225,1.0,7.0,-999,0.00,,,-99.99,WeatherLink 5.4,2013-07-31 16:03:00,
2013-07-31 12:33:00,73.9,-99.9,-100.00,SW,225,3.0,9.0,-999,0.00,,,-99.99,WeatherLink 5.4,2013-07-31 16:33:00,
2013-07-31 13:03:00,72.9,-99.9,-100.00,SW,225,3.0,9.0,-999,0.00,,,-99.99,WeatherLink 5.4,2013-07-31 17:03:00,
2013-07-31 13:33:00,73.4,-99.9,-100.00,SW,225,3.0,10.0,-999,0.00,,,-99.99,WeatherLink 5.4,2013-07-31 17:33:00,
2013-07-31 14:03:00,75.0,-99.9,-100.00,SW,225,2.0,8.0,-999,0.00,,,-99.99,WeatherLink 5.4,2013-07-31 18:03:00,
2013-07-31 14:33:00,76.0,-99.9,-100.00,SW,225,2.0,8.0,-999,0.00,,,-99.99,WeatherLink 5.4,2013-07-31 18:33:00,
2013-07-31 15:03:00,74.0,-99.9,-100.00,SW,225,1.0,8.0,-999,0.00,,,-99.99,WeatherLink 5.4,2013-07-31 19:03:00,
2013-07-31 15:34:00,74.5,-99.9,-100.00,SW,225,0.0,7.0,-999,0.00,,,-99.99,WeatherLink 5.4,2013-07-31 19:34:00,
2013-07-31 16:03:00,74.1,-99.9,-100.00,SW,225,2.0,9.0,-999,0.00,,,-99.99,WeatherLink 5.4,2013-07-31 20:03:00,
2013-07-31 16:33:00,74.0,-99.9,-100.00,SW,225,2.0,8.0,-999,0.00,,,-99.99,WeatherLink 5.4,2013-07-31 20:33:00,
2013-07-31 17:03:00,74.2,-99.9,-100.00,SW,225,2.0,9.0,-999,0.00,,,-99.99,WeatherLink 5.4,2013-07-31 21:03:00,
2013-07-31 17:33:00,75.4,-99.9,-100.00,SW,225,1.0,7.0,-999,0.00,,,-99.99,WeatherLink 5.4,2013-07-31 21:33:00,
2013-07-31 18:03:00,74.9,-99.9,-100.00,SW,225,2.0,9.0,-999,0.00,,,-99.99,WeatherLink 5.4,2013-07-31 22:03:00,
2013-07-31 18:33:00,75.2,-99.9,-100.00,SW,225,3.0,13.0,-999,0.00,,,-99.99,WeatherLink 5.4,2013-07-31 22:33:00,
2013-07-31 19:03:00,76.2,-99.9,-100.00,SW,225,2.0,9.0,-999,0.00,,,-99.99,WeatherLink 5.4,2013-07-31 23:03:00,
2013-07-31 19:33:00,75.6,-99.9,-100.00,SSW,202,1.0,7.0,-999,0.00,,,-99.99,WeatherLink 5.4,2013-07-31 23:33:00,
2013-07-31 20:03:00,72.8,-99.9,-100.00,SSW,202,0.0,5.0,-999,0.00,,,-99.99,WeatherLink 5.4,2013-08-01 00:03:00,
2013-07-31 20:33:00,72.0,-99.9,-100.00,SSW,202,0.0,2.0,-999,0.00,,,-99.99,WeatherLink 5.4,2013-08-01 00:33:00,
2013-07-31 21:03:00,71.2,-99.9,-100.00,SW,225,0.0,7.0,-999,0.00,,,-99.99,WeatherLink 5.4,2013-08-01 01:03:00,
2013-07-31 21:33:00,69.8,-99.9,-100.00,SW,225,0.0,2.0,-999,0.00,,,-99.99,WeatherLink 5.4,2013-08-01 01:33:00,
2013-07-31 22:03:00,69.1,-99.9,-100.00,North,-999,0.0,1.0,-999,0.00,,,-99.99,WeatherLink 5.4,2013-08-01 02:03:00,
2013-07-31 22:33:00,68.5,-99.9,-100.00,North,-999,0.0,0.0,-999,0.00,,,-99.99,WeatherLink 5.4,2013-08-01 02:33:00,
2013-07-31 23:03:00,68.1,-99.9,-100.00,SW,225,0.0,2.0,-999,0.00,,,-99.99,WeatherLink 5.4,2013-08-01 03:03:00,
2013-07-31 23:33:00,67.7,-99.9,-100.00,SW,225,0.0,3.0,-999,0.00,,,-99.99,WeatherLink 5.4,2013-08-01 03:33:00,